User: anonymous
Location: Fremont
(37.5480°N, 121.9880°W)
Time: 13:43:29
(UTC-07:00)
Language:

Cosmos 1844 Rocket - Orbit

View from above orbital plane
View from above orbital plane
View from above satellite
View from above satellite

Ground track
Ground track

The orbit data is extracted from the following two-line orbital elements,

1 17974U 87041B   14107.83208061 -.00000229  00000-0 -89658-4 0   872
2 17974 071.0084 185.9617 0014501 349.9722 154.8687 14.17096082392858
Epoch (UTC): 17 April 2014 19:58:11
Eccentricity: 0.0014501
inclination: 71.0084°
perigee height: 825 km
apogee height: 845 km
right ascension of ascending node: 185.9617°
argument of perigee: 349.9722°
revolutions per day: 14.17096082
mean anomaly at epoch: 154.8687°
orbit number at epoch: 39285

The dashed part of the orbit path shows where the satellite is in the earth's shadow,  

DLR